FDB897 OMDB-OEMA

Flight info

Callsign FDB897
Flight time 2h 32m
Altitude 32000
Route KUTLI4F KUTLI L519 ATUDO M318 GOLGU M550 RIBOT/N0471F280 M550 MEVDO/N0477F320 DCT DANOM DCT ASMIS DCT ELONU ELONU1E
Aircraft B38M/M-SDE1FGHILORVWXY/HB1

Departure

Time 2026-04-17 09:52
Airport Dubai International Airport (OMDB)

Arrival

Time 2026-04-17 12:25
Airport Prince Mohammad Bin Abdulaziz Airport (OEMA)
Time Latitude Longitude Altitude Speed Heading
2026-04-17 09:14 25.26203 55.33984 25 ft 0 kts 301°
2026-04-17 09:35 25.26196 55.33995 31 ft 4 kts 303°
2026-04-17 09:35 25.26181 55.34019 25 ft 4 kts 309°
2026-04-17 09:35 25.26162 55.34040 29 ft 4 kts 328°
2026-04-17 09:36 25.26140 55.34046 27 ft 4 kts 23°
2026-04-17 09:36 25.26136 55.34044 27 ft 2 kts 31°
2026-04-17 09:42 25.26137 55.34044 25 ft 0 kts 31°
2026-04-17 09:43 25.26144 55.34049 25 ft 4 kts 31°
2026-04-17 09:43 25.26181 55.34079 26 ft 9 kts 50°
2026-04-17 09:43 25.26192 55.34131 26 ft 5 kts 121°
2026-04-17 09:43 25.26164 55.34176 25 ft 9 kts 124°
2026-04-17 09:44 25.26122 55.34246 26 ft 13 kts 122°
2026-04-17 09:44 25.26070 55.34343 27 ft 16 kts 121°
2026-04-17 09:44 25.26009 55.34455 27 ft 18 kts 121°
2026-04-17 09:44 25.26001 55.34551 26 ft 14 kts 50°
2026-04-17 09:45 25.26074 55.34627 28 ft 15 kts 52°
2026-04-17 09:45 25.26146 55.34711 28 ft 15 kts 44°
2026-04-17 09:45 25.26233 55.34787 25 ft 16 kts 30°
2026-04-17 09:45 25.26326 55.34851 25 ft 14 kts 40°
2026-04-17 09:46 25.26312 55.34946 26 ft 14 kts 121°
2026-04-17 09:46 25.26260 55.35041 26 ft 15 kts 121°
2026-04-17 09:46 25.26202 55.35145 27 ft 17 kts 121°
2026-04-17 09:46 25.26138 55.35260 27 ft 18 kts 122°
2026-04-17 09:47 25.26067 55.35384 26 ft 20 kts 122°
2026-04-17 09:47 25.25991 55.35516 27 ft 21 kts 122°
2026-04-17 09:47 25.25922 55.35659 28 ft 21 kts 123°
2026-04-17 09:47 25.25840 55.35798 26 ft 22 kts 121°
2026-04-17 09:48 25.25757 55.35947 27 ft 23 kts 122°
2026-04-17 09:48 25.25669 55.36105 25 ft 25 kts 120°
2026-04-17 09:48 25.25578 55.36272 26 ft 26 kts 122°
2026-04-17 09:48 25.25480 55.36445 26 ft 27 kts 122°
2026-04-17 09:49 25.25380 55.36625 28 ft 28 kts 122°
2026-04-17 09:49 25.25280 55.36806 27 ft 28 kts 118°
2026-04-17 09:49 25.25179 55.36993 24 ft 29 kts 121°
2026-04-17 09:49 25.25071 55.37186 25 ft 30 kts 122°
2026-04-17 09:50 25.24962 55.37384 26 ft 29 kts 123°
2026-04-17 09:50 25.24854 55.37576 27 ft 30 kts 122°
2026-04-17 09:50 25.24748 55.37772 25 ft 31 kts 121°
2026-04-17 09:50 25.24678 55.37929 24 ft 17 kts 82°
2026-04-17 09:51 25.24729 55.37991 27 ft 17 kts 27°
2026-04-17 09:51 25.24814 55.38002 24 ft 7 kts 316°
2026-04-17 09:51 25.24826 55.37983 24 ft 1 kts 300°
2026-04-17 09:51 25.24922 55.37812 24 ft 61 kts 301°
2026-04-17 09:52 25.25259 55.37206 26 ft 122 kts 301°
2026-04-17 09:52 25.25821 55.36271 94 ft 162 kts 308°
2026-04-17 09:52 25.26573 55.35248 538 ft 179 kts 308°
2026-04-17 09:52 25.27310 55.34066 1030 ft 195 kts 296°
2026-04-17 09:53 25.27947 55.32765 1818 ft 193 kts 294°
2026-04-17 09:53 25.28624 55.31380 2333 ft 214 kts 298°
2026-04-17 09:53 25.29159 55.29824 3123 ft 214 kts 275°
2026-04-17 09:53 25.28913 55.28204 3967 ft 222 kts 251°
2026-04-17 09:54 25.28525 55.27234 4478 ft 223 kts 249°
2026-04-17 09:54 25.28037 55.26026 5146 ft 226 kts 250°
2026-04-17 09:54 25.27380 55.24427 5974 ft 231 kts 250°
2026-04-17 09:54 25.26708 55.22809 6791 ft 234 kts 249°
2026-04-17 09:55 25.26021 55.21173 7597 ft 235 kts 249°
2026-04-17 09:55 25.25329 55.19531 8430 ft 237 kts 249°
2026-04-17 09:55 25.24628 55.17875 9259 ft 239 kts 248°
2026-04-17 09:55 25.23882 55.16213 9971 ft 248 kts 244°
2026-04-17 09:56 25.22988 55.14499 10354 ft 267 kts 243°
2026-04-17 09:56 25.22028 55.12651 10711 ft 287 kts 243°
2026-04-17 09:56 25.21004 55.10666 11020 ft 308 kts 243°
2026-04-17 09:56 25.19986 55.08507 11288 ft 326 kts 250°
2026-04-17 09:57 25.19121 55.06129 11610 ft 342 kts 250°
2026-04-17 09:57 25.18208 55.03674 12196 ft 347 kts 250°
2026-04-17 09:57 25.17277 55.01205 12904 ft 350 kts 250°
2026-04-17 09:57 25.16329 54.98711 13568 ft 354 kts 249°
2026-04-17 09:58 25.15232 54.96260 14184 ft 361 kts 238°
2026-04-17 09:58 25.13469 54.94265 14824 ft 369 kts 218°
2026-04-17 09:58 25.11138 54.93017 15446 ft 380 kts 199°
2026-04-17 09:58 25.08489 54.92692 16085 ft 389 kts 182°
2026-04-17 09:59 25.05774 54.92723 16674 ft 392 kts 184°
2026-04-17 09:59 25.03038 54.92734 17262 ft 395 kts 181°
2026-04-17 09:59 25.00279 54.92923 17846 ft 398 kts 180°
2026-04-17 09:59 24.97506 54.93111 18384 ft 401 kts 180°
2026-04-17 10:00 24.94711 54.93291 18856 ft 404 kts 180°
2026-04-17 10:00 24.91897 54.93470 19331 ft 406 kts 180°
2026-04-17 10:00 24.89065 54.93632 19787 ft 408 kts 184°
2026-04-17 10:00 24.86281 54.93211 20188 ft 404 kts 201°
2026-04-17 10:01 24.83709 54.91998 20590 ft 403 kts 210°
2026-04-17 10:01 24.81192 54.90599 20997 ft 407 kts 210°
2026-04-17 10:01 24.78678 54.89154 21449 ft 409 kts 211°
2026-04-17 10:01 24.76156 54.87679 21885 ft 412 kts 211°
2026-04-17 10:02 24.73623 54.86182 22310 ft 415 kts 211°
2026-04-17 10:02 24.71075 54.84667 22745 ft 418 kts 211°
2026-04-17 10:02 24.68527 54.83110 23167 ft 420 kts 213°
2026-04-17 10:02 24.65996 54.81484 23555 ft 423 kts 213°
2026-04-17 10:03 24.63447 54.79856 23906 ft 425 kts 213°
2026-04-17 10:03 24.60883 54.78223 24271 ft 427 kts 213°
2026-04-17 10:03 24.58304 54.76582 24628 ft 429 kts 213°
2026-04-17 10:03 24.55714 54.74935 24974 ft 431 kts 213°
2026-04-17 10:04 24.53113 54.73272 25313 ft 434 kts 213°
2026-04-17 10:04 24.50503 54.71595 25674 ft 436 kts 213°
2026-04-17 10:04 24.47876 54.69909 26023 ft 438 kts 213°
2026-04-17 10:04 24.45240 54.68219 26374 ft 440 kts 213°
2026-04-17 10:05 24.42590 54.66523 26705 ft 442 kts 213°
2026-04-17 10:05 24.39962 54.64842 27039 ft 444 kts 213°
2026-04-17 10:05 24.37286 54.63131 27369 ft 446 kts 213°
2026-04-17 10:05 24.34601 54.61415 27695 ft 448 kts 212°
2026-04-17 10:06 24.31901 54.59691 28015 ft 450 kts 212°
2026-04-17 10:06 24.29194 54.57955 28333 ft 451 kts 214°
2026-04-17 10:06 24.26540 54.56107 28629 ft 452 kts 217°
2026-04-17 10:06 24.24222 54.53805 28916 ft 450 kts 233°
2026-04-17 10:07 24.22523 54.50941 29203 ft 450 kts 240°
2026-04-17 10:07 24.20936 54.47970 29439 ft 453 kts 241°
2026-04-17 10:07 24.19362 54.44978 29807 ft 453 kts 241°
2026-04-17 10:07 24.17805 54.41980 30197 ft 452 kts 241°
2026-04-17 10:08 24.16260 54.38984 30556 ft 451 kts 242°
2026-04-17 10:08 24.14723 54.35999 30929 ft 450 kts 242°
2026-04-17 10:08 24.13187 54.33016 31304 ft 449 kts 242°
2026-04-17 10:08 24.11656 54.30045 31680 ft 448 kts 242°
2026-04-17 10:09 24.10126 54.27076 31939 ft 448 kts 242°
2026-04-17 10:09 24.08599 54.24116 31965 ft 445 kts 242°
2026-04-17 10:09 24.05565 54.18237 31963 ft 443 kts 242°
2026-04-17 10:10 24.02534 54.12373 31962 ft 443 kts 242°
2026-04-17 10:11 23.97948 54.03597 31964 ft 443 kts 241°
2026-04-17 10:11 23.94866 53.97763 31962 ft 442 kts 242°
2026-04-17 10:12 23.91793 53.91952 31960 ft 441 kts 242°
2026-04-17 10:12 23.88720 53.86147 31964 ft 441 kts 242°
2026-04-17 10:13 23.85645 53.80344 31968 ft 441 kts 242°
2026-04-17 10:13 23.82567 53.74543 31971 ft 441 kts 242°
2026-04-17 10:14 23.79485 53.68742 31967 ft 442 kts 242°
2026-04-17 10:14 23.76402 53.62945 31967 ft 442 kts 242°
2026-04-17 10:15 23.73313 53.57145 31962 ft 443 kts 242°
2026-04-17 10:15 23.70219 53.51326 31969 ft 443 kts 242°
2026-04-17 10:16 23.67137 53.45505 31969 ft 443 kts 242°
2026-04-17 10:16 23.64053 53.39689 31968 ft 443 kts 242°
2026-04-17 10:17 23.60966 53.33875 31972 ft 443 kts 242°
2026-04-17 10:17 23.57877 53.28062 31970 ft 443 kts 242°
2026-04-17 10:18 23.54784 53.22249 31972 ft 443 kts 242°
2026-04-17 10:18 23.51692 53.16447 31970 ft 443 kts 242°
2026-04-17 10:19 23.48596 53.10642 31972 ft 443 kts 242°
2026-04-17 10:19 23.45500 53.04844 31972 ft 443 kts 242°
2026-04-17 10:20 23.42401 52.99046 31973 ft 443 kts 242°
2026-04-17 10:20 23.39371 52.93228 31970 ft 441 kts 243°
2026-04-17 10:21 23.36379 52.87393 31971 ft 442 kts 243°
2026-04-17 10:21 23.33382 52.81563 31974 ft 441 kts 243°
2026-04-17 10:22 23.30382 52.75737 31973 ft 441 kts 243°
2026-04-17 10:22 23.27382 52.69916 31971 ft 441 kts 243°
2026-04-17 10:23 23.24379 52.64096 31974 ft 441 kts 243°
2026-04-17 10:23 23.21372 52.58277 31975 ft 441 kts 243°
2026-04-17 10:24 23.18377 52.52457 31970 ft 441 kts 245°
2026-04-17 10:24 23.16297 52.46239 31959 ft 439 kts 252°
2026-04-17 10:25 23.14304 52.39979 31972 ft 438 kts 253°
2026-04-17 10:25 23.12319 52.33720 31971 ft 438 kts 253°
2026-04-17 10:26 23.10331 52.27459 31972 ft 438 kts 252°
2026-04-17 10:26 23.08343 52.21207 31970 ft 438 kts 252°
2026-04-17 10:27 23.06354 52.14962 31970 ft 438 kts 252°
2026-04-17 10:27 23.04362 52.08717 31971 ft 438 kts 252°
2026-04-17 10:28 23.02368 52.02475 31973 ft 437 kts 252°
2026-04-17 10:28 23.00374 51.96242 31969 ft 437 kts 252°
2026-04-17 10:29 22.98377 51.90011 31968 ft 437 kts 252°
2026-04-17 10:29 22.96377 51.83779 31969 ft 437 kts 252°
2026-04-17 10:30 22.94376 51.77551 31967 ft 438 kts 252°
2026-04-17 10:30 22.92367 51.71311 31970 ft 438 kts 252°
2026-04-17 10:31 22.90697 51.66130 31975 ft 438 kts 252°
2026-04-17 10:31 22.88685 51.59897 31972 ft 438 kts 252°
2026-04-17 10:32 22.86671 51.53666 31966 ft 438 kts 252°
2026-04-17 10:32 22.84657 51.47439 31966 ft 438 kts 253°
2026-04-17 10:33 22.83373 51.41016 31970 ft 437 kts 259°
2026-04-17 10:33 22.82221 51.34556 31970 ft 436 kts 260°
2026-04-17 10:34 22.81085 51.28149 31971 ft 429 kts 260°
2026-04-17 10:34 22.79958 51.21804 31968 ft 429 kts 260°
2026-04-17 10:35 22.78826 51.15451 31970 ft 429 kts 260°
2026-04-17 10:35 22.77692 51.09106 31966 ft 429 kts 260°
2026-04-17 10:36 22.76555 51.02766 31967 ft 429 kts 260°
2026-04-17 10:36 22.75416 50.96427 31966 ft 428 kts 260°
2026-04-17 10:37 22.74276 50.90097 31963 ft 428 kts 260°
2026-04-17 10:37 22.73133 50.83769 31969 ft 426 kts 260°
2026-04-17 10:38 22.71995 50.77478 31968 ft 426 kts 260°
2026-04-17 10:38 22.70854 50.71187 31969 ft 426 kts 260°
2026-04-17 10:39 22.69711 50.64901 31968 ft 425 kts 260°
2026-04-17 10:39 22.68571 50.58646 31964 ft 422 kts 261°
2026-04-17 10:40 22.67433 50.52416 31964 ft 422 kts 261°
2026-04-17 10:40 22.66293 50.46189 31966 ft 422 kts 261°
2026-04-17 10:41 22.65151 50.39962 31964 ft 420 kts 261°
2026-04-17 10:41 22.64015 50.33792 31962 ft 417 kts 261°
2026-04-17 10:42 22.62879 50.27624 31965 ft 418 kts 261°
2026-04-17 10:42 22.61739 50.21457 31964 ft 418 kts 261°
2026-04-17 10:43 22.60599 50.15300 31968 ft 417 kts 261°
2026-04-17 10:43 22.59459 50.09155 31970 ft 416 kts 261°
2026-04-17 10:44 22.58317 50.03014 31959 ft 417 kts 261°
2026-04-17 10:44 22.57171 49.96865 31957 ft 417 kts 261°
2026-04-17 10:45 22.56025 49.90727 31960 ft 416 kts 261°
2026-04-17 10:45 22.54876 49.84588 31960 ft 416 kts 261°
2026-04-17 10:46 22.53742 49.78448 31965 ft 416 kts 264°
2026-04-17 10:46 22.53722 49.75347 31962 ft 412 kts 276°
2026-04-17 10:46 22.53995 49.72253 31942 ft 414 kts 275°
2026-04-17 10:47 22.54539 49.66049 31967 ft 415 kts 276°
2026-04-17 10:47 22.55120 49.59846 31958 ft 414 kts 276°
2026-04-17 10:48 22.55703 49.53684 31967 ft 414 kts 276°
2026-04-17 10:48 22.56287 49.47489 31955 ft 414 kts 276°
2026-04-17 10:49 22.56869 49.41289 31965 ft 414 kts 276°
2026-04-17 10:49 22.57449 49.35084 31961 ft 415 kts 276°
2026-04-17 10:50 22.58027 49.28877 31953 ft 414 kts 276°
2026-04-17 10:50 22.58603 49.22667 31955 ft 415 kts 276°
2026-04-17 10:51 22.59176 49.16460 31960 ft 415 kts 276°
2026-04-17 10:51 22.59747 49.10250 31959 ft 415 kts 275°
2026-04-17 10:52 22.60316 49.04040 31963 ft 414 kts 275°
2026-04-17 10:52 22.60881 48.97836 31957 ft 414 kts 275°
2026-04-17 10:53 22.61444 48.91635 31964 ft 414 kts 275°
2026-04-17 10:53 22.62005 48.85431 31961 ft 414 kts 275°
2026-04-17 10:54 22.62564 48.79216 31964 ft 416 kts 275°
2026-04-17 10:54 22.63122 48.72990 31967 ft 415 kts 275°
2026-04-17 10:55 22.63677 48.66765 31964 ft 415 kts 275°
2026-04-17 10:55 22.64229 48.60547 31967 ft 415 kts 275°
2026-04-17 10:56 22.64779 48.54332 31963 ft 415 kts 275°
2026-04-17 10:56 22.65326 48.48114 31968 ft 415 kts 275°
2026-04-17 10:57 22.65870 48.41904 31960 ft 414 kts 275°
2026-04-17 10:57 22.66411 48.35697 31963 ft 414 kts 275°
2026-04-17 10:58 22.66950 48.29488 31961 ft 414 kts 275°
2026-04-17 10:58 22.67487 48.23284 31977 ft 414 kts 275°
2026-04-17 10:59 22.68021 48.17074 31961 ft 414 kts 275°
2026-04-17 10:59 22.68549 48.10909 31957 ft 414 kts 275°
2026-04-17 11:00 22.69079 48.04704 31962 ft 414 kts 275°
2026-04-17 11:00 22.69605 47.98499 31957 ft 414 kts 275°
2026-04-17 11:01 22.70129 47.92295 31961 ft 414 kts 275°
2026-04-17 11:01 22.70651 47.86087 31965 ft 414 kts 275°
2026-04-17 11:02 22.71171 47.79879 31956 ft 414 kts 275°
2026-04-17 11:02 22.71688 47.73673 31966 ft 414 kts 275°
2026-04-17 11:03 22.72203 47.67462 31968 ft 414 kts 275°
2026-04-17 11:03 22.72716 47.61249 31966 ft 414 kts 275°
2026-04-17 11:04 22.73226 47.55037 31975 ft 414 kts 275°
2026-04-17 11:04 22.73734 47.48826 31968 ft 414 kts 275°
2026-04-17 11:05 22.74239 47.42617 31971 ft 414 kts 275°
2026-04-17 11:05 22.74742 47.36405 31973 ft 414 kts 275°
2026-04-17 11:06 22.75242 47.30191 31978 ft 414 kts 275°
2026-04-17 11:06 22.75740 47.23978 31975 ft 414 kts 275°
2026-04-17 11:07 22.76236 47.17761 31973 ft 414 kts 275°
2026-04-17 11:07 22.76729 47.11548 31980 ft 414 kts 275°
2026-04-17 11:08 22.77220 47.05337 31997 ft 414 kts 275°
2026-04-17 11:08 22.77708 46.99130 31989 ft 414 kts 275°
2026-04-17 11:09 22.78194 46.92912 31988 ft 413 kts 275°
2026-04-17 11:09 22.78677 46.86706 31985 ft 413 kts 275°
2026-04-17 11:10 22.79397 46.77399 31993 ft 413 kts 275°
2026-04-17 11:10 22.79874 46.71193 31988 ft 413 kts 275°
2026-04-17 11:11 22.80348 46.64987 31994 ft 413 kts 275°
2026-04-17 11:11 22.80820 46.58781 31994 ft 413 kts 275°
2026-04-17 11:12 22.81290 46.52575 32003 ft 413 kts 275°
2026-04-17 11:12 22.81756 46.46372 32005 ft 413 kts 275°
2026-04-17 11:13 22.82221 46.40166 32000 ft 413 kts 275°
2026-04-17 11:13 22.82605 46.35013 31997 ft 412 kts 275°
2026-04-17 11:14 22.83063 46.28830 31990 ft 411 kts 275°
2026-04-17 11:14 22.83520 46.22639 31998 ft 412 kts 275°
2026-04-17 11:15 22.83975 46.16448 31983 ft 412 kts 275°
2026-04-17 11:15 22.84426 46.10260 31994 ft 411 kts 275°
2026-04-17 11:16 22.84875 46.04076 31983 ft 411 kts 275°
2026-04-17 11:16 22.85322 45.97890 31987 ft 412 kts 275°
2026-04-17 11:17 22.85766 45.91707 31993 ft 411 kts 275°
2026-04-17 11:17 22.86207 45.85521 31979 ft 411 kts 275°
2026-04-17 11:18 22.86647 45.79333 31979 ft 411 kts 275°
2026-04-17 11:18 22.87084 45.73148 31974 ft 411 kts 275°
2026-04-17 11:19 22.87519 45.66962 31976 ft 412 kts 275°
2026-04-17 11:19 22.87951 45.60773 31983 ft 412 kts 275°
2026-04-17 11:20 22.88381 45.54584 31975 ft 411 kts 275°
2026-04-17 11:20 22.88809 45.48402 31979 ft 411 kts 275°
2026-04-17 11:21 22.89234 45.42217 31981 ft 412 kts 275°
2026-04-17 11:21 22.89658 45.36024 31994 ft 412 kts 275°
2026-04-17 11:22 22.90080 45.29834 31984 ft 411 kts 275°
2026-04-17 11:22 22.90499 45.23647 31982 ft 411 kts 275°
2026-04-17 11:23 22.90916 45.17456 31973 ft 411 kts 275°
2026-04-17 11:23 22.91330 45.11265 31981 ft 411 kts 275°
2026-04-17 11:24 22.91733 45.05080 31978 ft 411 kts 275°
2026-04-17 11:24 22.92139 44.98890 31969 ft 412 kts 274°
2026-04-17 11:25 22.92544 44.92689 31980 ft 412 kts 275°
2026-04-17 11:25 22.92946 44.86498 31981 ft 411 kts 274°
2026-04-17 11:26 22.93347 44.80305 31987 ft 411 kts 275°
2026-04-17 11:26 22.93744 44.74114 31979 ft 411 kts 275°
2026-04-17 11:27 22.94162 44.67925 31979 ft 411 kts 278°
2026-04-17 11:27 22.95802 44.61996 31975 ft 412 kts 287°
2026-04-17 11:28 22.97589 44.56090 31984 ft 412 kts 287°
2026-04-17 11:28 22.99402 44.50197 31983 ft 412 kts 287°
2026-04-17 11:29 23.01217 44.44302 31986 ft 412 kts 287°
2026-04-17 11:29 23.03042 44.38369 31980 ft 411 kts 287°
2026-04-17 11:30 23.04852 44.32474 31981 ft 411 kts 287°
2026-04-17 11:30 23.06659 44.26579 31981 ft 411 kts 287°
2026-04-17 11:31 23.08464 44.20684 31977 ft 411 kts 287°
2026-04-17 11:31 23.10266 44.14789 31973 ft 411 kts 287°
2026-04-17 11:32 23.12067 44.08892 31982 ft 411 kts 287°
2026-04-17 11:32 23.13866 44.02988 31980 ft 411 kts 287°
2026-04-17 11:33 23.15662 43.97086 31976 ft 411 kts 287°
2026-04-17 11:33 23.17455 43.91188 31987 ft 411 kts 287°
2026-04-17 11:34 23.19245 43.85290 31990 ft 411 kts 287°
2026-04-17 11:34 23.21032 43.79391 31992 ft 411 kts 287°
2026-04-17 11:35 23.22816 43.73494 31994 ft 410 kts 287°
2026-04-17 11:35 23.24597 43.67599 31987 ft 410 kts 287°
2026-04-17 11:36 23.26373 43.61709 32014 ft 410 kts 287°
2026-04-17 11:36 23.28147 43.55819 32009 ft 410 kts 287°
2026-04-17 11:37 23.29920 43.49925 32014 ft 410 kts 287°
2026-04-17 11:37 23.31689 43.44032 32019 ft 410 kts 287°
2026-04-17 11:38 23.33455 43.38142 32020 ft 409 kts 287°
2026-04-17 11:38 23.35216 43.32261 32025 ft 409 kts 287°
2026-04-17 11:39 23.36976 43.26374 32027 ft 409 kts 287°
2026-04-17 11:39 23.38732 43.20490 32035 ft 409 kts 287°
2026-04-17 11:40 23.40484 43.14610 32034 ft 408 kts 287°
2026-04-17 11:40 23.42234 43.08730 32035 ft 408 kts 287°
2026-04-17 11:41 23.43981 43.02849 32040 ft 408 kts 287°
2026-04-17 11:41 23.45725 42.96971 32044 ft 407 kts 287°
2026-04-17 11:42 23.47463 42.91100 32045 ft 408 kts 287°
2026-04-17 11:42 23.49200 42.85227 32044 ft 407 kts 287°
2026-04-17 11:43 23.50936 42.79350 32040 ft 407 kts 287°
2026-04-17 11:43 23.52668 42.73474 32040 ft 407 kts 287°
2026-04-17 11:44 23.54399 42.67596 32034 ft 407 kts 287°
2026-04-17 11:44 23.56127 42.61716 32036 ft 407 kts 287°
2026-04-17 11:45 23.57852 42.55839 32036 ft 407 kts 287°
2026-04-17 11:45 23.59575 42.49958 32032 ft 407 kts 287°
2026-04-17 11:46 23.61294 42.44083 32031 ft 407 kts 287°
2026-04-17 11:46 23.63012 42.38200 32034 ft 407 kts 286°
2026-04-17 11:47 23.64725 42.32330 32030 ft 406 kts 286°
2026-04-17 11:47 23.66435 42.26455 32026 ft 406 kts 286°
2026-04-17 11:48 23.68144 42.20579 32028 ft 406 kts 286°
2026-04-17 11:48 23.69849 42.14706 32030 ft 406 kts 286°
2026-04-17 11:49 23.71552 42.08832 32025 ft 406 kts 286°
2026-04-17 11:49 23.73251 42.02960 32025 ft 406 kts 286°
2026-04-17 11:50 23.74949 41.97084 32024 ft 406 kts 286°
2026-04-17 11:50 23.76645 41.91204 32022 ft 406 kts 286°
2026-04-17 11:51 23.78338 41.85328 32013 ft 406 kts 286°
2026-04-17 11:51 23.80029 41.79448 32016 ft 406 kts 286°
2026-04-17 11:52 23.81432 41.74560 32011 ft 406 kts 286°
2026-04-17 11:52 23.83131 41.68637 32004 ft 406 kts 286°
2026-04-17 11:53 23.84815 41.62755 32002 ft 406 kts 286°
2026-04-17 11:53 23.86496 41.56872 32001 ft 406 kts 286°
2026-04-17 11:54 23.88176 41.50987 32001 ft 405 kts 286°
2026-04-17 11:54 23.89852 41.45106 31999 ft 406 kts 286°
2026-04-17 11:55 23.91526 41.39219 31991 ft 406 kts 286°
2026-04-17 11:55 23.93198 41.33332 31991 ft 405 kts 286°
2026-04-17 11:56 23.94867 41.27447 31984 ft 405 kts 286°
2026-04-17 11:56 23.96523 41.21601 31984 ft 405 kts 286°
2026-04-17 11:57 23.98187 41.15711 31984 ft 405 kts 286°
2026-04-17 11:57 23.99861 41.09782 31981 ft 405 kts 285°
2026-04-17 11:58 24.01509 41.03930 31982 ft 405 kts 285°
2026-04-17 11:58 24.03177 40.98002 31972 ft 405 kts 285°
2026-04-17 11:59 24.04833 40.92105 31979 ft 405 kts 285°
2026-04-17 11:59 24.06488 40.86208 31973 ft 406 kts 285°
2026-04-17 12:00 24.08140 40.80309 31970 ft 405 kts 285°
2026-04-17 12:00 24.09789 40.74413 31977 ft 405 kts 285°
2026-04-17 12:01 24.11437 40.68512 31964 ft 406 kts 285°
2026-04-17 12:01 24.13081 40.62613 31261 ft 405 kts 285°
2026-04-17 12:02 24.13899 40.59676 30710 ft 401 kts 285°
2026-04-17 12:02 24.14694 40.56817 30261 ft 394 kts 285°
2026-04-17 12:02 24.15502 40.53909 29749 ft 400 kts 285°
2026-04-17 12:02 24.16227 40.50971 29098 ft 408 kts 278°
2026-04-17 12:03 24.16597 40.47871 28253 ft 413 kts 277°
2026-04-17 12:03 24.16978 40.44742 27330 ft 417 kts 277°
2026-04-17 12:03 24.17359 40.41577 26380 ft 422 kts 276°
2026-04-17 12:03 24.17745 40.38361 25615 ft 428 kts 276°
2026-04-17 12:04 24.18131 40.35130 24893 ft 429 kts 276°
2026-04-17 12:04 24.18519 40.31882 24161 ft 430 kts 276°
2026-04-17 12:04 24.18904 40.28645 23421 ft 427 kts 276°
2026-04-17 12:04 24.19286 40.25430 22640 ft 424 kts 276°
2026-04-17 12:05 24.19661 40.22272 22372 ft 411 kts 276°
2026-04-17 12:05 24.20023 40.19215 22116 ft 398 kts 276°
2026-04-17 12:05 24.20373 40.16254 21880 ft 387 kts 276°
2026-04-17 12:05 24.20713 40.13374 21670 ft 375 kts 276°
2026-04-17 12:06 24.21043 40.10581 21461 ft 365 kts 276°
2026-04-17 12:06 24.21362 40.07863 21287 ft 355 kts 276°
2026-04-17 12:06 24.21673 40.05220 21114 ft 345 kts 276°
2026-04-17 12:06 24.21978 40.02615 20957 ft 336 kts 276°
2026-04-17 12:07 24.22271 40.00116 20797 ft 326 kts 275°
2026-04-17 12:07 24.22556 39.97684 20647 ft 317 kts 275°
2026-04-17 12:07 24.22832 39.95319 20497 ft 308 kts 275°
2026-04-17 12:07 24.23103 39.93025 20344 ft 300 kts 276°
2026-04-17 12:08 24.23721 39.90851 20006 ft 303 kts 296°
2026-04-17 12:08 24.25093 39.89090 19659 ft 310 kts 318°
2026-04-17 12:08 24.27025 39.88019 19329 ft 317 kts 340°
2026-04-17 12:08 24.29193 39.87548 19013 ft 317 kts 344°
2026-04-17 12:09 24.31353 39.87078 18671 ft 316 kts 344°
2026-04-17 12:09 24.33509 39.86616 18334 ft 315 kts 344°
2026-04-17 12:09 24.35664 39.86160 17959 ft 315 kts 345°
2026-04-17 12:09 24.37810 39.85709 17608 ft 314 kts 345°
2026-04-17 12:10 24.39947 39.85260 17263 ft 312 kts 345°
2026-04-17 12:10 24.42071 39.84814 16927 ft 310 kts 345°
2026-04-17 12:10 24.44181 39.84371 16597 ft 308 kts 345°
2026-04-17 12:10 24.46277 39.83928 16252 ft 307 kts 345°
2026-04-17 12:11 24.48403 39.83471 15897 ft 306 kts 345°
2026-04-17 12:11 24.50488 39.83023 15577 ft 305 kts 345°
2026-04-17 12:11 24.52562 39.82578 15463 ft 295 kts 345°
2026-04-17 12:12 24.56496 39.81734 15090 ft 282 kts 345°
2026-04-17 12:12 24.58434 39.81324 14724 ft 284 kts 346°
2026-04-17 12:12 24.60394 39.80908 14419 ft 283 kts 346°
2026-04-17 12:12 24.62325 39.80499 14120 ft 283 kts 346°
2026-04-17 12:13 24.64253 39.80089 13830 ft 282 kts 346°
2026-04-17 12:13 24.66176 39.79681 13472 ft 281 kts 347°
2026-04-17 12:13 24.68095 39.79273 13122 ft 281 kts 347°
2026-04-17 12:13 24.70008 39.78867 12793 ft 280 kts 346°
2026-04-17 12:14 24.71916 39.78462 12469 ft 278 kts 347°
2026-04-17 12:14 24.73816 39.78058 12154 ft 277 kts 346°
2026-04-17 12:14 24.75707 39.77656 11859 ft 276 kts 346°
2026-04-17 12:14 24.77588 39.77255 11532 ft 275 kts 346°
2026-04-17 12:15 24.79463 39.76859 11217 ft 273 kts 345°
2026-04-17 12:15 24.81325 39.76462 10933 ft 273 kts 346°
2026-04-17 12:15 24.83194 39.76063 10632 ft 274 kts 346°
2026-04-17 12:15 24.85081 39.75661 10256 ft 278 kts 346°
2026-04-17 12:16 24.86986 39.75256 9947 ft 279 kts 346°
2026-04-17 12:16 24.88888 39.74852 9639 ft 279 kts 345°
2026-04-17 12:16 24.90677 39.74122 9271 ft 273 kts 320°
2026-04-17 12:16 24.91867 39.72571 8932 ft 264 kts 290°
2026-04-17 12:17 24.92204 39.70642 8679 ft 255 kts 264°
2026-04-17 12:17 24.91930 39.68738 8429 ft 250 kts 257°
2026-04-17 12:17 24.91593 39.66848 8145 ft 247 kts 255°
2026-04-17 12:17 24.90912 39.65154 7829 ft 243 kts 229°
2026-04-17 12:18 24.89558 39.64086 7487 ft 242 kts 200°
2026-04-17 12:18 24.87906 39.63855 7214 ft 241 kts 174°
2026-04-17 12:18 24.86292 39.64188 7091 ft 230 kts 170°
2026-04-17 12:18 24.84755 39.64533 6837 ft 222 kts 172°
2026-04-17 12:19 24.83252 39.64857 6540 ft 219 kts 171°
2026-04-17 12:19 24.81748 39.65181 6241 ft 215 kts 171°
2026-04-17 12:19 24.80314 39.65486 6137 ft 203 kts 170°
2026-04-17 12:19 24.78947 39.65778 5997 ft 196 kts 169°
2026-04-17 12:20 24.77589 39.66071 5766 ft 202 kts 170°
2026-04-17 12:20 24.76230 39.66363 5606 ft 196 kts 171°
2026-04-17 12:20 24.74908 39.66644 5400 ft 192 kts 171°
2026-04-17 12:20 24.74025 39.66832 5247 ft 191 kts 172°
2026-04-17 12:21 24.72707 39.67115 5017 ft 190 kts 170°
2026-04-17 12:21 24.71413 39.67391 4786 ft 188 kts 171°
2026-04-17 12:21 24.70169 39.67657 4554 ft 178 kts 172°
2026-04-17 12:21 24.68978 39.67911 4322 ft 171 kts 170°
2026-04-17 12:22 24.67818 39.68160 4131 ft 169 kts 171°
2026-04-17 12:22 24.66663 39.68406 3917 ft 167 kts 172°
2026-04-17 12:22 24.65552 39.68644 3747 ft 156 kts 172°
2026-04-17 12:22 24.64487 39.68870 3514 ft 157 kts 173°
2026-04-17 12:23 24.63402 39.69102 3337 ft 157 kts 172°
2026-04-17 12:23 24.62325 39.69335 3163 ft 158 kts 172°
2026-04-17 12:23 24.61256 39.69559 2898 ft 155 kts 171°
2026-04-17 12:23 24.60199 39.69785 2690 ft 154 kts 170°
2026-04-17 12:24 24.59110 39.70027 2523 ft 168 kts 168°
2026-04-17 12:24 24.57934 39.70281 2258 ft 171 kts 171°
2026-04-17 12:24 24.56832 39.70511 2120 ft 145 kts 172°
2026-04-17 12:24 24.55955 39.70690 2114 ft 110 kts 169°
2026-04-17 12:25 24.55327 39.70826 2112 ft 75 kts 169°
2026-04-17 12:25 24.54965 39.70922 2115 ft 44 kts 148°
2026-04-17 12:25 24.54868 39.71000 2114 ft 12 kts 143°
2026-04-17 12:25 24.54824 39.71084 2111 ft 15 kts 86°
2026-04-17 12:26 24.54848 39.71213 2108 ft 19 kts 84°
2026-04-17 12:26 24.54879 39.71295 2107 ft 9 kts 31°
2026-04-17 12:26 24.54933 39.71296 2107 ft 8 kts 351°
2026-04-17 12:26 24.54990 39.71283 2108 ft 9 kts 348°
2026-04-17 12:27 24.55062 39.71268 2107 ft 11 kts 349°
2026-04-17 12:27 24.55144 39.71250 2108 ft 13 kts 348°
2026-04-17 12:27 24.55238 39.71230 2107 ft 14 kts 349°
2026-04-17 12:27 24.55331 39.71210 2107 ft 9 kts 348°
2026-04-17 12:28 24.55371 39.71211 2107 ft 4 kts 40°
2026-04-17 12:28 24.55380 39.71242 2107 ft 5 kts 80°
2026-04-17 12:28 24.55387 39.71280 2107 ft 3 kts 79°
2026-04-17 12:28 24.55390 39.71299 2107 ft 0 kts 79°